Location: Hiekkapohja
(62.3333°N, 25.7833°E)
Time: 06:23:55
(UTC+00:00)

ADEOS II - Pass Details

Date: 07 August 2020
Orbit: 799 x 802 km, 98.5° (Epoch: 20 September)

Event Time Altitude Azimuth Distance (km) Brightness Sun altitude
Rises 00:32:56 0° 18° (NNE) 3,328 7.3 -7.3°
Reaches altitude 10° 00:35:21 10° 24° (NNE) 2,393 6.3 -7.1°
Maximum altitude 00:40:31 52° 101° (E) 1,000 2.8 -6.8°
Drops below altitude 10° 00:45:38 10° 177° (S) 2,376 4.1 -6.5°
Enters shadow 00:47:27 - 182° (S) 3,076 4.6 -6.3°
